Year,Month,Day,Hour,Minute,Value (Times are PST for temperature in C)
2016,07,26,00,00,18.00
2016,07,26,00,01,18.00
2016,07,26,00,02,17.90
2016,07,26,00,03,17.90
2016,07,26,00,04,17.90
2016,07,26,00,05,17.90
2016,07,26,00,06,17.90
2016,07,26,00,07,17.80
2016,07,26,00,08,17.80
2016,07,26,00,09,17.80
2016,07,26,00,10,17.80
2016,07,26,00,11,17.80
2016,07,26,00,12,17.80
2016,07,26,00,13,17.80
2016,07,26,00,14,17.70
2016,07,26,00,15,17.70
2016,07,26,00,16,17.70
2016,07,26,00,17,17.70
2016,07,26,00,18,17.70
2016,07,26,00,19,17.70
2016,07,26,00,20,17.60
2016,07,26,00,21,17.60
2016,07,26,00,22,17.60
2016,07,26,00,23,17.60
2016,07,26,00,24,17.60
2016,07,26,00,25,17.50
2016,07,26,00,26,17.50
2016,07,26,00,27,17.50
2016,07,26,00,28,17.40
2016,07,26,00,29,17.40
2016,07,26,00,30,17.40
2016,07,26,00,31,17.40
2016,07,26,00,32,17.40
2016,07,26,00,33,17.40
2016,07,26,00,34,17.40
2016,07,26,00,35,17.40
2016,07,26,00,36,17.30
2016,07,26,00,37,17.30
2016,07,26,00,38,17.30
2016,07,26,00,39,17.30
2016,07,26,00,40,17.30
2016,07,26,00,41,17.30
2016,07,26,00,42,17.30
2016,07,26,00,43,17.20
2016,07,26,00,44,17.20
2016,07,26,00,45,17.20
2016,07,26,00,46,17.20
2016,07,26,00,47,17.20
2016,07,26,00,48,17.20
2016,07,26,00,49,17.20
2016,07,26,00,50,17.20
2016,07,26,00,51,17.20
2016,07,26,00,52,17.20
2016,07,26,00,53,17.20
2016,07,26,00,54,17.10
2016,07,26,00,55,17.10
2016,07,26,00,56,17.10
2016,07,26,00,57,17.10
2016,07,26,00,58,17.20
2016,07,26,00,59,17.20
2016,07,26,01,00,17.20
2016,07,26,01,01,17.20
2016,07,26,01,02,17.30
2016,07,26,01,03,17.30
2016,07,26,01,04,17.40
2016,07,26,01,05,17.50
2016,07,26,01,06,17.50
2016,07,26,01,07,17.50
2016,07,26,01,08,17.60
2016,07,26,01,09,17.60
2016,07,26,01,10,17.60
2016,07,26,01,11,17.60
2016,07,26,01,12,17.60
2016,07,26,01,13,17.60
2016,07,26,01,14,17.60
2016,07,26,01,15,17.60
2016,07,26,01,16,17.60
2016,07,26,01,17,17.70
2016,07,26,01,18,17.70
2016,07,26,01,19,17.70
2016,07,26,01,20,17.70
2016,07,26,01,21,17.70
2016,07,26,01,22,17.80
2016,07,26,01,23,17.80
2016,07,26,01,24,17.80
2016,07,26,01,25,17.90
2016,07,26,01,26,17.90
2016,07,26,01,27,17.90
2016,07,26,01,28,17.90
2016,07,26,01,29,17.90
2016,07,26,01,30,18.00
2016,07,26,01,31,18.00
2016,07,26,01,32,18.10
2016,07,26,01,33,18.10
2016,07,26,01,34,18.20
2016,07,26,01,35,18.20
2016,07,26,01,36,18.30
2016,07,26,01,37,18.50
2016,07,26,01,38,18.50
2016,07,26,01,39,18.60
2016,07,26,01,40,18.60
2016,07,26,01,41,18.60
2016,07,26,01,42,18.60
2016,07,26,01,43,18.60
2016,07,26,01,44,18.70
2016,07,26,01,45,18.80
2016,07,26,01,46,18.90
2016,07,26,01,47,19.00
2016,07,26,01,48,19.20
2016,07,26,01,49,19.30
2016,07,26,01,50,19.40
2016,07,26,01,51,19.40
2016,07,26,01,52,19.50
2016,07,26,01,53,19.60
2016,07,26,01,54,19.60
2016,07,26,01,55,19.70
2016,07,26,01,56,19.80
2016,07,26,01,57,19.80
2016,07,26,01,58,19.90
2016,07,26,01,59,19.90
2016,07,26,02,00,19.90
2016,07,26,02,01,19.90
2016,07,26,02,02,19.90
2016,07,26,02,03,19.90
2016,07,26,02,04,19.90
2016,07,26,02,05,19.90
2016,07,26,02,06,19.90
2016,07,26,02,07,19.90
2016,07,26,02,08,19.80
2016,07,26,02,09,19.80
2016,07,26,02,10,19.80
2016,07,26,02,11,19.90
2016,07,26,02,12,19.90
2016,07,26,02,13,19.90
2016,07,26,02,14,19.90
2016,07,26,02,15,20.00
2016,07,26,02,16,20.00
2016,07,26,02,17,20.00
2016,07,26,02,18,20.10
2016,07,26,02,19,20.10
2016,07,26,02,20,20.10
2016,07,26,02,21,20.20
2016,07,26,02,22,20.20
2016,07,26,02,23,20.30
2016,07,26,02,24,20.30
2016,07,26,02,25,20.30
2016,07,26,02,26,20.40
2016,07,26,02,27,20.40
2016,07,26,02,28,20.40
2016,07,26,02,29,20.40
2016,07,26,02,30,20.40
2016,07,26,02,31,20.40
2016,07,26,02,32,20.30
2016,07,26,02,33,20.30
2016,07,26,02,34,20.30
2016,07,26,02,35,20.30
2016,07,26,02,36,20.20
2016,07,26,02,37,20.20
2016,07,26,02,38,20.20
2016,07,26,02,39,20.10
2016,07,26,02,40,20.10
2016,07,26,02,41,20.10
2016,07,26,02,42,20.00
2016,07,26,02,43,20.00
2016,07,26,02,44,20.00
2016,07,26,02,45,20.00
2016,07,26,02,46,20.00
2016,07,26,02,47,20.00
2016,07,26,02,48,19.90
2016,07,26,02,49,19.90
2016,07,26,02,50,19.90
2016,07,26,02,51,19.90
2016,07,26,02,52,19.80
2016,07,26,02,53,19.80
2016,07,26,02,54,19.80
2016,07,26,02,55,19.80
2016,07,26,02,56,19.80
2016,07,26,02,57,19.80
2016,07,26,02,58,19.80
2016,07,26,02,59,19.80
2016,07,26,03,00,19.80
2016,07,26,03,01,19.80
2016,07,26,03,02,19.80
2016,07,26,03,03,19.80
2016,07,26,03,04,19.80
2016,07,26,03,05,19.90
2016,07,26,03,06,20.00
2016,07,26,03,07,20.10
2016,07,26,03,08,20.10
2016,07,26,03,09,20.20
2016,07,26,03,10,20.20
2016,07,26,03,11,20.20
2016,07,26,03,12,20.20
2016,07,26,03,13,20.20
2016,07,26,03,14,20.20
2016,07,26,03,15,20.20
2016,07,26,03,16,20.20
2016,07,26,03,17,20.20
2016,07,26,03,18,20.20
2016,07,26,03,19,20.20
2016,07,26,03,20,20.20
2016,07,26,03,21,20.20
2016,07,26,03,22,20.20
2016,07,26,03,23,20.10
2016,07,26,03,24,20.10
2016,07,26,03,25,20.10
2016,07,26,03,26,20.10
2016,07,26,03,27,20.00
2016,07,26,03,28,20.00
2016,07,26,03,29,19.90
2016,07,26,03,30,19.90
2016,07,26,03,31,19.90
2016,07,26,03,32,19.80
2016,07,26,03,33,19.80
2016,07,26,03,34,19.80
2016,07,26,03,35,19.70
2016,07,26,03,36,19.70
2016,07,26,03,37,19.70
2016,07,26,03,38,19.70
2016,07,26,03,39,19.70
2016,07,26,03,40,19.60
2016,07,26,03,41,19.60
2016,07,26,03,42,19.60
2016,07,26,03,43,19.60
2016,07,26,03,44,19.60
2016,07,26,03,45,19.60
2016,07,26,03,46,19.50
2016,07,26,03,47,19.50
2016,07,26,03,48,19.50
2016,07,26,03,49,19.50
2016,07,26,03,50,19.50
2016,07,26,03,51,19.40
2016,07,26,03,52,19.40
2016,07,26,03,53,19.40
2016,07,26,03,54,19.40
2016,07,26,03,55,19.40
2016,07,26,03,56,19.40
2016,07,26,03,57,19.40
2016,07,26,03,58,19.30
2016,07,26,03,59,19.30
2016,07,26,04,00,19.30
2016,07,26,04,01,19.30
2016,07,26,04,02,19.30
2016,07,26,04,03,19.30
2016,07,26,04,04,19.30
2016,07,26,04,05,19.30
2016,07,26,04,06,19.20
2016,07,26,04,07,19.20
2016,07,26,04,08,19.20
2016,07,26,04,09,19.20
2016,07,26,04,10,19.30
2016,07,26,04,11,19.30
2016,07,26,04,12,19.30
2016,07,26,04,13,19.30
2016,07,26,04,14,19.30
2016,07,26,04,15,19.30
2016,07,26,04,16,19.30
2016,07,26,04,17,19.30
2016,07,26,04,18,19.30
2016,07,26,04,19,19.30
2016,07,26,04,20,19.30
2016,07,26,04,21,19.30
2016,07,26,04,22,19.20
2016,07,26,04,23,19.20
2016,07,26,04,24,19.20
2016,07,26,04,25,19.20
2016,07,26,04,26,19.20
2016,07,26,04,27,19.20
2016,07,26,04,28,19.10
2016,07,26,04,29,19.10
2016,07,26,04,30,19.10
2016,07,26,04,31,19.10
2016,07,26,04,32,19.00
2016,07,26,04,33,19.00
2016,07,26,04,34,19.00
2016,07,26,04,35,19.00
2016,07,26,04,36,18.90
2016,07,26,04,37,18.90
2016,07,26,04,38,18.90
2016,07,26,04,39,18.80
2016,07,26,04,40,18.80
2016,07,26,04,41,18.80
2016,07,26,04,42,18.70
2016,07,26,04,43,18.70
2016,07,26,04,44,18.70
2016,07,26,04,45,18.70
2016,07,26,04,46,18.70
2016,07,26,04,47,18.60
2016,07,26,04,48,18.60
2016,07,26,04,49,18.60
2016,07,26,04,50,18.60
2016,07,26,04,51,18.60
2016,07,26,04,52,18.60
2016,07,26,04,53,18.60
2016,07,26,04,54,18.60
2016,07,26,04,55,18.60
2016,07,26,04,56,18.60
2016,07,26,04,57,18.60
2016,07,26,04,58,18.50
2016,07,26,04,59,18.50
2016,07,26,05,00,18.50
2016,07,26,05,01,18.50
2016,07,26,05,02,18.50
2016,07,26,05,03,18.50
2016,07,26,05,04,18.50
2016,07,26,05,05,18.50
2016,07,26,05,06,18.50
2016,07,26,05,07,18.40
2016,07,26,05,08,18.40
2016,07,26,05,09,18.40
2016,07,26,05,10,18.40
2016,07,26,05,11,18.40
2016,07,26,05,12,18.40
2016,07,26,05,13,18.40
2016,07,26,05,14,18.40
2016,07,26,05,15,18.30
2016,07,26,05,16,18.30
2016,07,26,05,17,18.30
2016,07,26,05,18,18.30
2016,07,26,05,19,18.30
2016,07,26,05,20,18.30
2016,07,26,05,21,18.20
2016,07,26,05,22,18.20
2016,07,26,05,23,18.20
2016,07,26,05,24,18.20
2016,07,26,05,25,18.20
2016,07,26,05,26,18.20
2016,07,26,05,27,18.20
2016,07,26,05,28,18.10
2016,07,26,05,29,18.10
2016,07,26,05,30,18.10
2016,07,26,05,31,18.10
2016,07,26,05,32,18.10
2016,07,26,05,33,18.10
2016,07,26,05,34,18.10
2016,07,26,05,35,18.10
2016,07,26,05,36,18.10
2016,07,26,05,37,18.10
2016,07,26,05,38,18.00
2016,07,26,05,39,18.00
2016,07,26,05,40,18.00
2016,07,26,05,41,18.00
2016,07,26,05,42,18.00
2016,07,26,05,43,17.90
2016,07,26,05,44,17.90
2016,07,26,05,45,17.90
2016,07,26,05,46,17.90
2016,07,26,05,47,17.90
2016,07,26,05,48,17.90
2016,07,26,05,49,17.90
2016,07,26,05,50,17.90
2016,07,26,05,51,17.90
2016,07,26,05,52,17.90
2016,07,26,05,53,17.90
2016,07,26,05,54,17.90
2016,07,26,05,55,17.90
2016,07,26,05,56,17.90
2016,07,26,05,57,17.90
2016,07,26,05,58,17.90
2016,07,26,05,59,17.90
2016,07,26,06,00,17.90
2016,07,26,06,01,17.90
2016,07,26,06,02,17.90
2016,07,26,06,03,17.90
2016,07,26,06,04,17.90
2016,07,26,06,05,17.90
2016,07,26,06,06,17.90
2016,07,26,06,07,17.90
2016,07,26,06,08,17.90
2016,07,26,06,09,17.90
2016,07,26,06,10,17.90
2016,07,26,06,11,17.80
2016,07,26,06,12,17.80
2016,07,26,06,13,17.80
2016,07,26,06,14,17.80
2016,07,26,06,15,17.80
2016,07,26,06,16,17.80
2016,07,26,06,17,17.90
2016,07,26,06,18,17.90
2016,07,26,06,19,17.90
2016,07,26,06,20,17.90
2016,07,26,06,21,17.90
2016,07,26,06,22,17.90
2016,07,26,06,23,17.90
2016,07,26,06,24,17.90
2016,07,26,06,25,17.90
2016,07,26,06,26,17.90
2016,07,26,06,27,18.00
2016,07,26,06,28,18.00
2016,07,26,06,29,18.10
2016,07,26,06,30,18.10
2016,07,26,06,31,18.10
2016,07,26,06,32,18.10
2016,07,26,06,33,18.20
2016,07,26,06,34,18.20
2016,07,26,06,35,18.20
2016,07,26,06,36,18.20
2016,07,26,06,37,18.20
2016,07,26,06,38,18.30
2016,07,26,06,39,18.30
2016,07,26,06,40,18.30
2016,07,26,06,41,18.30
2016,07,26,06,42,18.30
2016,07,26,06,43,18.30
2016,07,26,06,44,18.30
2016,07,26,06,45,18.30
2016,07,26,06,46,18.30
2016,07,26,06,47,18.30
2016,07,26,06,48,18.30
2016,07,26,06,49,18.30
2016,07,26,06,50,18.30
2016,07,26,06,51,18.30
2016,07,26,06,52,18.30
2016,07,26,06,53,18.20
2016,07,26,06,54,18.30
2016,07,26,06,55,18.30
2016,07,26,06,56,18.30
2016,07,26,06,57,18.30
2016,07,26,06,58,18.30
2016,07,26,06,59,18.30
2016,07,26,07,00,18.30
2016,07,26,07,01,18.30
2016,07,26,07,02,18.30
2016,07,26,07,03,18.30
2016,07,26,07,04,18.30
2016,07,26,07,05,18.30
2016,07,26,07,06,18.30
2016,07,26,07,07,18.30
2016,07,26,07,08,18.30
2016,07,26,07,09,18.30
2016,07,26,07,10,18.30
2016,07,26,07,11,18.30
2016,07,26,07,12,18.30
2016,07,26,07,13,18.30
2016,07,26,07,14,18.30
2016,07,26,07,15,18.30
2016,07,26,07,16,18.30
2016,07,26,07,17,18.30
2016,07,26,07,18,18.30
2016,07,26,07,19,18.30
2016,07,26,07,20,18.30
2016,07,26,07,21,18.30
2016,07,26,07,22,18.30
2016,07,26,07,23,18.30
2016,07,26,07,24,18.30
2016,07,26,07,25,18.30
2016,07,26,07,26,18.30
2016,07,26,07,27,18.30
2016,07,26,07,28,18.30
2016,07,26,07,29,18.30
2016,07,26,07,30,18.30
2016,07,26,07,31,18.30
2016,07,26,07,32,18.40
2016,07,26,07,33,18.40
2016,07,26,07,34,18.40
2016,07,26,07,35,18.40
2016,07,26,07,36,18.40
2016,07,26,07,37,18.50
2016,07,26,07,38,18.50
2016,07,26,07,39,18.60
2016,07,26,07,40,18.60
2016,07,26,07,41,18.60
2016,07,26,07,42,18.70
2016,07,26,07,43,18.70
2016,07,26,07,44,18.70
2016,07,26,07,45,18.70
2016,07,26,07,46,18.70
2016,07,26,07,47,18.70
2016,07,26,07,48,18.70
2016,07,26,07,49,18.70
2016,07,26,07,50,18.70
2016,07,26,07,51,18.80
2016,07,26,07,52,18.80
2016,07,26,07,53,18.80
2016,07,26,07,54,18.80
2016,07,26,07,55,18.80
2016,07,26,07,56,18.90
2016,07,26,07,57,18.90
2016,07,26,07,58,18.90
2016,07,26,07,59,18.90
2016,07,26,08,00,19.00
2016,07,26,08,01,19.10
2016,07,26,08,02,19.10
2016,07,26,08,03,19.10
2016,07,26,08,04,19.10
2016,07,26,08,05,19.20
2016,07,26,08,06,19.20
2016,07,26,08,07,19.30
2016,07,26,08,08,19.30
2016,07,26,08,09,19.30
2016,07,26,08,10,19.30
2016,07,26,08,11,19.30
2016,07,26,08,12,19.30
2016,07,26,08,13,19.30
2016,07,26,08,14,19.30
2016,07,26,08,15,19.30
2016,07,26,08,16,19.40
2016,07,26,08,17,19.40
2016,07,26,08,18,19.50
2016,07,26,08,19,19.50
2016,07,26,08,20,19.50
2016,07,26,08,21,19.50
2016,07,26,08,22,19.50
2016,07,26,08,23,19.50
2016,07,26,08,24,19.50
2016,07,26,08,25,19.50
2016,07,26,08,26,19.50
2016,07,26,08,27,19.40
2016,07,26,08,28,19.40
2016,07,26,08,29,19.50
2016,07,26,08,30,19.50
2016,07,26,08,31,19.50
2016,07,26,08,32,19.60
2016,07,26,08,33,19.60
2016,07,26,08,34,19.60
2016,07,26,08,35,19.60
2016,07,26,08,36,19.70
2016,07,26,08,37,19.70
2016,07,26,08,38,19.80
2016,07,26,08,39,19.80
2016,07,26,08,40,19.90
2016,07,26,08,41,19.90
2016,07,26,08,42,20.00
2016,07,26,08,43,20.00
2016,07,26,08,44,20.10
2016,07,26,08,45,20.10
2016,07,26,08,46,20.10
2016,07,26,08,47,20.10
2016,07,26,08,48,20.10
2016,07,26,08,49,20.10
2016,07,26,08,50,20.10
2016,07,26,08,51,20.10
2016,07,26,08,52,20.10
2016,07,26,08,53,20.10
2016,07,26,08,54,20.20
2016,07,26,08,55,20.20
2016,07,26,08,56,20.20
2016,07,26,08,57,20.20
2016,07,26,08,58,20.20
2016,07,26,08,59,20.30
2016,07,26,09,00,20.30
2016,07,26,09,01,20.20
2016,07,26,09,02,20.20
2016,07,26,09,03,20.20
2016,07,26,09,04,20.20
2016,07,26,09,05,20.20
2016,07,26,09,06,20.20
2016,07,26,09,07,20.20
2016,07,26,09,08,20.20
2016,07,26,09,09,20.20
2016,07,26,09,10,20.20
2016,07,26,09,11,20.20
2016,07,26,09,12,20.20
2016,07,26,09,13,20.30
2016,07,26,09,14,20.30
2016,07,26,09,15,20.30
2016,07,26,09,16,20.30
2016,07,26,09,17,20.40
2016,07,26,09,18,20.40
2016,07,26,09,19,20.50
2016,07,26,09,20,20.50
2016,07,26,09,21,20.50
2016,07,26,09,22,20.50
2016,07,26,09,23,20.60
2016,07,26,09,24,20.60
2016,07,26,09,25,20.50
2016,07,26,09,26,20.50
2016,07,26,09,27,20.40
2016,07,26,09,28,20.40
2016,07,26,09,29,20.40
2016,07,26,09,30,20.50
2016,07,26,09,31,20.50
2016,07,26,09,32,20.50
2016,07,26,09,33,20.50
2016,07,26,09,34,20.50
2016,07,26,09,35,20.50
2016,07,26,09,36,20.60
2016,07,26,09,37,20.60
2016,07,26,09,38,20.60
2016,07,26,09,39,20.70
2016,07,26,09,40,20.70
2016,07,26,09,41,20.70
2016,07,26,09,42,20.70
2016,07,26,09,43,20.70
2016,07,26,09,44,20.70
2016,07,26,09,45,20.70
2016,07,26,09,46,20.80
2016,07,26,09,47,20.80
2016,07,26,09,48,20.80
2016,07,26,09,49,20.80
2016,07,26,09,50,20.80
2016,07,26,09,51,20.80
2016,07,26,09,52,20.80
2016,07,26,09,53,20.80
2016,07,26,09,54,20.80
2016,07,26,09,55,20.80
2016,07,26,09,56,20.70
2016,07,26,09,57,20.80
2016,07,26,09,58,20.80
2016,07,26,09,59,20.80
2016,07,26,10,00,20.80
2016,07,26,10,01,20.80
2016,07,26,10,02,20.80
2016,07,26,10,03,20.90
2016,07,26,10,04,20.90
2016,07,26,10,05,21.00
2016,07,26,10,06,21.00
2016,07,26,10,07,21.00
2016,07,26,10,08,21.00
2016,07,26,10,09,21.00
2016,07,26,10,10,21.10
2016,07,26,10,11,21.10
2016,07,26,10,12,21.10
2016,07,26,10,13,21.20
2016,07,26,10,14,21.20
2016,07,26,10,15,21.20
2016,07,26,10,16,21.30
2016,07,26,10,17,21.20
2016,07,26,10,18,21.10
2016,07,26,10,19,21.00
2016,07,26,10,20,21.00
2016,07,26,10,21,21.00
2016,07,26,10,22,21.10
2016,07,26,10,23,21.10
2016,07,26,10,24,21.20
2016,07,26,10,25,21.20
2016,07,26,10,26,21.30
2016,07,26,10,27,21.30
2016,07,26,10,28,21.30
2016,07,26,10,29,21.40
2016,07,26,10,30,21.40
2016,07,26,10,31,21.50
2016,07,26,10,32,21.40
2016,07,26,10,33,21.40
2016,07,26,10,34,21.50
2016,07,26,10,35,21.50
2016,07,26,10,36,21.50
2016,07,26,10,37,21.50
2016,07,26,10,38,21.50
2016,07,26,10,39,21.40
2016,07,26,10,40,21.40
2016,07,26,10,41,21.30
2016,07,26,10,42,21.30
2016,07,26,10,43,21.30
2016,07,26,10,44,21.30
2016,07,26,10,45,21.30
2016,07,26,10,46,21.30
2016,07,26,10,47,21.30
2016,07,26,10,48,21.30
2016,07,26,10,49,21.30
2016,07,26,10,50,21.30
2016,07,26,10,51,21.30
2016,07,26,10,52,21.30
2016,07,26,10,53,21.30
2016,07,26,10,54,21.30
2016,07,26,10,55,21.30
2016,07,26,10,56,21.30
2016,07,26,10,57,21.40
2016,07,26,10,58,21.40
2016,07,26,10,59,21.40
2016,07,26,11,00,21.50
2016,07,26,11,01,21.50
2016,07,26,11,02,21.50
2016,07,26,11,03,21.50
2016,07,26,11,04,21.50
2016,07,26,11,05,21.40
2016,07,26,11,06,21.50
2016,07,26,11,07,21.60
2016,07,26,11,08,21.60
2016,07,26,11,09,21.70
2016,07,26,11,10,21.80
2016,07,26,11,11,21.90
2016,07,26,11,12,21.90
2016,07,26,11,13,21.80
2016,07,26,11,14,21.80
2016,07,26,11,15,21.70
2016,07,26,11,16,21.70
2016,07,26,11,17,21.60
2016,07,26,11,18,21.60
2016,07,26,11,19,21.50
2016,07,26,11,20,21.50
2016,07,26,11,21,21.40
2016,07,26,11,22,21.40
2016,07,26,11,23,21.40
2016,07,26,11,24,21.40
2016,07,26,11,25,21.40
2016,07,26,11,26,21.40
2016,07,26,11,27,21.50
2016,07,26,11,28,21.50
2016,07,26,11,29,21.50
2016,07,26,11,30,21.60
2016,07,26,11,31,21.60
2016,07,26,11,32,21.60
2016,07,26,11,33,21.60
2016,07,26,11,34,21.60
2016,07,26,11,35,21.50
2016,07,26,11,36,21.50
2016,07,26,11,37,21.50
2016,07,26,11,38,21.50
2016,07,26,11,39,21.60
2016,07,26,11,40,21.60
2016,07,26,11,41,21.70
2016,07,26,11,42,21.80
2016,07,26,11,43,21.80
2016,07,26,11,44,21.80
2016,07,26,11,45,21.90
2016,07,26,11,46,21.90
2016,07,26,11,47,22.00
2016,07,26,11,48,22.00
2016,07,26,11,49,22.00
2016,07,26,11,50,21.90
2016,07,26,11,51,22.00
2016,07,26,11,52,22.00
2016,07,26,11,53,22.10
2016,07,26,11,54,22.20
2016,07,26,11,55,22.30
2016,07,26,11,56,22.50
2016,07,26,11,57,22.50
2016,07,26,11,58,22.60
2016,07,26,11,59,22.60
2016,07,26,12,00,22.60
2016,07,26,12,01,22.60
2016,07,26,12,02,22.50
2016,07,26,12,03,22.50
2016,07,26,12,04,22.40
2016,07,26,12,05,22.30
2016,07,26,12,06,22.30
2016,07,26,12,07,22.40
2016,07,26,12,08,22.40
2016,07,26,12,09,22.40
2016,07,26,12,10,22.40
2016,07,26,12,11,22.40
2016,07,26,12,12,22.40
2016,07,26,12,13,22.40
2016,07,26,12,14,22.40
2016,07,26,12,15,22.40
2016,07,26,12,16,22.50
2016,07,26,12,17,22.50
2016,07,26,12,18,22.50
2016,07,26,12,19,22.50
2016,07,26,12,20,22.50
2016,07,26,12,21,22.40
2016,07,26,12,22,22.40
2016,07,26,12,23,22.40
2016,07,26,12,24,22.40
2016,07,26,12,25,22.50
2016,07,26,12,26,22.50
2016,07,26,12,27,22.50
2016,07,26,12,28,22.60
2016,07,26,12,29,22.50
2016,07,26,12,30,22.50
2016,07,26,12,31,22.40
2016,07,26,12,32,22.40
2016,07,26,12,33,22.50
2016,07,26,12,34,22.50
2016,07,26,12,35,22.60
2016,07,26,12,36,22.60
2016,07,26,12,37,22.70
2016,07,26,12,38,22.80
2016,07,26,12,39,22.90
2016,07,26,12,40,22.90
2016,07,26,12,41,23.00
2016,07,26,12,42,23.00
2016,07,26,12,43,23.10
2016,07,26,12,44,23.20
2016,07,26,12,45,23.20
2016,07,26,12,46,23.20
2016,07,26,12,47,23.30
2016,07,26,12,48,23.30
2016,07,26,12,49,23.40
2016,07,26,12,50,23.50
2016,07,26,12,51,23.60
2016,07,26,12,52,23.70
2016,07,26,12,53,23.60
2016,07,26,12,54,23.60
2016,07,26,12,55,23.60
2016,07,26,12,56,23.60
2016,07,26,12,57,23.60
2016,07,26,12,58,23.50
2016,07,26,12,59,23.50
2016,07,26,13,00,23.40
2016,07,26,13,01,23.40
2016,07,26,13,02,23.30
2016,07,26,13,03,23.20
2016,07,26,13,04,23.10
2016,07,26,13,05,23.10
2016,07,26,13,06,23.00
2016,07,26,13,07,23.00
2016,07,26,13,08,22.90
2016,07,26,13,09,22.90
2016,07,26,13,10,22.90
2016,07,26,13,11,23.00
2016,07,26,13,12,23.00
2016,07,26,13,13,23.10
2016,07,26,13,14,23.10
2016,07,26,13,15,23.10
2016,07,26,13,16,23.10
2016,07,26,13,17,23.10
2016,07,26,13,18,23.20
2016,07,26,13,19,23.20
2016,07,26,13,20,23.30
2016,07,26,13,21,23.20
2016,07,26,13,22,23.20
2016,07,26,13,23,23.10
2016,07,26,13,24,23.10
2016,07,26,13,25,23.10
2016,07,26,13,26,23.00
2016,07,26,13,27,23.00
2016,07,26,13,28,22.90
2016,07,26,13,29,23.00
2016,07,26,13,30,23.00
2016,07,26,13,31,23.00
2016,07,26,13,32,23.10
2016,07,26,13,33,23.10
2016,07,26,13,34,23.10
2016,07,26,13,35,23.20
2016,07,26,13,36,23.20
2016,07,26,13,37,23.20
2016,07,26,13,38,23.30
2016,07,26,13,39,23.30
2016,07,26,13,40,23.40
2016,07,26,13,41,23.40
2016,07,26,13,42,23.50
2016,07,26,13,43,23.60
2016,07,26,13,44,23.60
2016,07,26,13,45,23.50
2016,07,26,13,46,23.40
2016,07,26,13,47,23.40
2016,07,26,13,48,23.30
2016,07,26,13,49,23.30
2016,07,26,13,50,23.30
2016,07,26,13,51,23.30
2016,07,26,13,52,23.30
2016,07,26,13,53,23.30
2016,07,26,13,54,23.40
2016,07,26,13,55,23.40
2016,07,26,13,56,23.30
2016,07,26,13,57,23.30
2016,07,26,13,58,23.30
2016,07,26,13,59,23.40
2016,07,26,14,00,23.40
2016,07,26,14,01,23.40
2016,07,26,14,02,23.50
2016,07,26,14,03,23.50
2016,07,26,14,04,23.50
2016,07,26,14,05,23.60
2016,07,26,14,06,23.60
2016,07,26,14,07,23.70
2016,07,26,14,08,23.80
2016,07,26,14,09,23.80
2016,07,26,14,10,23.80
2016,07,26,14,11,23.90
2016,07,26,14,12,23.90
2016,07,26,14,13,24.00
2016,07,26,14,14,24.10
2016,07,26,14,15,24.10
2016,07,26,14,16,24.20
2016,07,26,14,17,24.20
2016,07,26,14,18,24.30
2016,07,26,14,19,24.30
2016,07,26,14,20,24.30
2016,07,26,14,21,24.30
2016,07,26,14,22,24.30
2016,07,26,14,23,24.30
2016,07,26,14,24,24.40
2016,07,26,14,25,24.40
2016,07,26,14,26,24.40
2016,07,26,14,27,24.30
2016,07,26,14,28,24.20
2016,07,26,14,29,24.00
2016,07,26,14,30,24.00
2016,07,26,14,31,23.90
2016,07,26,14,32,23.90
2016,07,26,14,33,23.90
2016,07,26,14,34,23.90
2016,07,26,14,35,23.80
2016,07,26,14,36,23.80
2016,07,26,14,37,23.90
2016,07,26,14,38,23.90
2016,07,26,14,39,24.00
2016,07,26,14,40,24.10
2016,07,26,14,41,24.20
2016,07,26,14,42,24.30
2016,07,26,14,43,24.40
2016,07,26,14,44,24.50
2016,07,26,14,45,24.60
2016,07,26,14,46,24.60
2016,07,26,14,47,24.60
2016,07,26,14,48,24.60
2016,07,26,14,49,24.60
2016,07,26,14,50,24.50
2016,07,26,14,51,24.40
2016,07,26,14,52,24.50
2016,07,26,14,53,24.40
2016,07,26,14,54,24.50
2016,07,26,14,55,24.50
2016,07,26,14,56,24.40
2016,07,26,14,57,24.40
2016,07,26,14,58,24.30
2016,07,26,14,59,24.30
2016,07,26,15,00,24.30
2016,07,26,15,01,24.40
2016,07,26,15,02,24.40
2016,07,26,15,03,24.40
2016,07,26,15,04,24.30
2016,07,26,15,05,24.30
2016,07,26,15,06,24.30
2016,07,26,15,07,24.30
2016,07,26,15,08,24.30
2016,07,26,15,09,24.40
2016,07,26,15,10,24.40
2016,07,26,15,11,24.40
2016,07,26,15,12,24.40
2016,07,26,15,13,24.40
2016,07,26,15,14,24.40
2016,07,26,15,15,24.40
2016,07,26,15,16,24.50
2016,07,26,15,17,24.50
2016,07,26,15,18,24.40
2016,07,26,15,19,24.40
2016,07,26,15,20,24.50
2016,07,26,15,21,24.50
2016,07,26,15,22,24.60
2016,07,26,15,23,24.70
2016,07,26,15,24,24.80
2016,07,26,15,25,24.90
2016,07,26,15,26,24.90
2016,07,26,15,27,24.90
2016,07,26,15,28,24.80
2016,07,26,15,29,24.80
2016,07,26,15,30,24.80
2016,07,26,15,31,24.80
2016,07,26,15,32,24.70
2016,07,26,15,33,24.80
2016,07,26,15,34,24.80
2016,07,26,15,35,24.80
2016,07,26,15,36,24.80
2016,07,26,15,37,24.80
2016,07,26,15,38,24.80
2016,07,26,15,39,24.90
2016,07,26,15,40,24.90
2016,07,26,15,41,24.80
2016,07,26,15,42,24.80
2016,07,26,15,43,24.80
2016,07,26,15,44,24.80
2016,07,26,15,45,24.80
2016,07,26,15,46,24.80
2016,07,26,15,47,24.80
2016,07,26,15,48,24.70
2016,07,26,15,49,24.70
2016,07,26,15,50,24.70
2016,07,26,15,51,24.80
2016,07,26,15,52,24.80
2016,07,26,15,53,24.80
2016,07,26,15,54,24.80
2016,07,26,15,55,24.80
2016,07,26,15,56,24.80
2016,07,26,15,57,24.90
2016,07,26,15,58,24.90
2016,07,26,15,59,24.90
2016,07,26,16,00,24.90
2016,07,26,16,01,25.00
2016,07,26,16,02,25.10
2016,07,26,16,03,25.10
2016,07,26,16,04,25.10
2016,07,26,16,05,25.20
2016,07,26,16,06,25.20
2016,07,26,16,07,25.20
2016,07,26,16,08,25.20
2016,07,26,16,09,25.20
2016,07,26,16,10,25.30
2016,07,26,16,11,25.40
2016,07,26,16,12,25.40
2016,07,26,16,13,25.50
2016,07,26,16,14,25.50
2016,07,26,16,15,25.50
2016,07,26,16,16,25.50
2016,07,26,16,17,25.50
2016,07,26,16,18,25.40
2016,07,26,16,19,25.30
2016,07,26,16,20,25.30
2016,07,26,16,21,25.30
2016,07,26,16,22,25.30
2016,07,26,16,23,25.40
2016,07,26,16,24,25.40
2016,07,26,16,25,25.50
2016,07,26,16,26,25.50
2016,07,26,16,27,25.60
2016,07,26,16,28,25.50
2016,07,26,16,29,25.40
2016,07,26,16,30,25.40
2016,07,26,16,31,25.40
2016,07,26,16,32,25.40
2016,07,26,16,33,25.50
2016,07,26,16,34,25.50
2016,07,26,16,35,25.60
2016,07,26,16,36,25.70
2016,07,26,16,37,25.70
2016,07,26,16,38,25.80
2016,07,26,16,39,25.90
2016,07,26,16,40,26.00
2016,07,26,16,41,26.00
2016,07,26,16,42,26.10
2016,07,26,16,43,26.10
2016,07,26,16,44,26.00
2016,07,26,16,45,25.90
2016,07,26,16,46,25.90
2016,07,26,16,47,25.80
2016,07,26,16,48,25.80
2016,07,26,16,49,25.80
2016,07,26,16,50,25.90
2016,07,26,16,51,25.90
2016,07,26,16,52,26.00
2016,07,26,16,53,26.00
2016,07,26,16,54,26.00
2016,07,26,16,55,26.00
2016,07,26,16,56,25.90
2016,07,26,16,57,25.90
2016,07,26,16,58,25.90
2016,07,26,16,59,25.90
2016,07,26,17,00,25.90
2016,07,26,17,01,26.00
2016,07,26,17,02,26.00
2016,07,26,17,03,26.10
2016,07,26,17,04,26.20
2016,07,26,17,05,26.10
2016,07,26,17,06,26.10
2016,07,26,17,07,26.10
2016,07,26,17,08,26.10
2016,07,26,17,09,26.10
2016,07,26,17,10,26.10
2016,07,26,17,11,26.10
2016,07,26,17,12,26.00
2016,07,26,17,13,26.00
2016,07,26,17,14,26.00
2016,07,26,17,15,26.00
2016,07,26,17,16,26.10
2016,07,26,17,17,26.10
2016,07,26,17,18,26.10
2016,07,26,17,19,26.00